Regional Weather Roundup
Issued by NWS

Home | Current Version | Previous Version | Graphics & Text | Print | Product List | Glossary On
Versions: 1 2 3 4 5 6 7 8 9 10 11 12 13 14 15 16 17 18 19 20 21 22 23 24 25 26 27 28 29 30 31 32 33 34 35 36 37 38 39 40 41 42 43 44 45 46 47 48 49 50
128
ASUS43 KLSX 091910
RWRMO

WEATHER SUMMARY FOR MISSOURI
NATIONAL WEATHER SERVICE SPRINGFIELD MO
100 PM CST FRI DEC 09 2016

NOTE: "FAIR" INDICATES FEW OR NO CLOUDS BELOW 12,000 FEET WITH NO
       SIGNIFICANT WEATHER AND/OR OBSTRUCTIONS TO VISIBILITY.
       CURRENT SKY AND/OR WEATHER CONDITIONS ARE NOT AVAILABLE FOR
       CHILLICOTHE AND FARMINGTON.

MOZ001>031-035>038-043-044-053-054-092000-
...NORTHERN AND WESTERN MISSOURI...

CITY           SKY/WX    TMP DP  RH WIND       PRES   REMARKS
KANSAS CTY INT CLOUDY    24  11  57 SE5       30.57F WCI  18
KANSAS C DTWN  CLOUDY    27  11  51 SW6       30.60F WCI  20
LEE`S SUMMIT   PTSUNNY   26  11  52 S7        30.59F WCI  18
ST JOSEPH      PTSUNNY   24  13  62 VRB5      30.58F WCI  18
CHILLICOTHE      N/A     25  11  55 CALM      30.60F
KIRKSVILLE     MOSUNNY   24   8  50 VRB5      30.58F WCI  18

$$
MOZ066>068-077>081-088>096-101>105-092000-
...SOUTHWEST MISSOURI...

CITY           SKY/WX    TMP DP  RH WIND       PRES   REMARKS
SPRINGFIELD    SUNNY     29  10  45 CALM      30.56F
JOPLIN         SUNNY     30  12  47 VRB5      30.58F WCI  25

$$
MOZ032>034-039>042-045>050-055>058-069>072-092000-
...CENTRAL MISSOURI...

CITY           SKY/WX    TMP DP  RH WIND       PRES   REMARKS
COLUMBIA       MOSUNNY   27  10  49 NW7       30.60F WCI  19
JEFFERSON CITY MOSUNNY   26  10  50 NW6       30.64F WCI  19
ROLLA          CLOUDY    28   9  44 NW8       30.56F WCI  20
SEDALIA        CLOUDY    26  11  52 CALM      30.62F
WHITEMAN AFB   PTSUNNY   25  11  55 CALM      30.60F
WARRENSBURG    CLOUDY    27  14  59 CALM      30.61F
OSAGE BEACH    SUNNY     34   7  32 CALM      30.61F

$$
MOZ051-052-059>065-092000-
...EAST CENTRAL MISSOURI...

CITY           SKY/WX    TMP DP  RH WIND       PRES   REMARKS
ST LOUIS INTL  CLOUDY    28  12  51 W9        30.60F WCI  19
SPIRIT OF STL  MOSUNNY   28  11  48 W8        30.61F WCI  20
ST CHARLES     MOSUNNY   26  13  57 W10       30.60F WCI  16

$$
MOZ072>076-082>087-097>100-106>115-092000-
...SOUTH CENTRAL AND SOUTHEAST MISSOURI...

CITY           SKY/WX    TMP DP  RH WIND       PRES   REMARKS
CAPE GIRARDEAU SUNNY     30  15  53 VRB3      30.62F
POPLAR BLUFF   SUNNY     32  15  49 VRB3      30.62F
WEST PLAINS    SUNNY     31  12  45 VRB6      30.58F WCI  25

$$




USA.gov is the U.S. government's official web portal to all federal, state and local government web resources and services.